Hourly Data Report for June 26, 2021

BORDEN AWOS
ONTARIO
Current Station Operator: DND

44°16'20.000" N
79°54'42.000" W
222.50 m
611B002
71534
YBN

Download Data

Hourly Data (June 2021)
Hourly Data Report for June 26, 2021
TIME
LST
Temp Definition
°C
Dew Point Definition
°C
Rel Hum Definition
%
Precip. Amount Definition
mm

Wind Dir Definition
10's deg

Wind Spd Definition
km/h
Visibility Definition
km
Stn Press Definition
kPa
Hmdx Definition


Wind Chill Definition


Weather Definition


00:00 19.8 19.1 96   16 19 8.0 98.64     LegendNANA
01:00 19.7 19.2 97   16 22 6.4 98.59     Rain
02:00 19.9 19.5 98   16 19 14.5 98.51     LegendNANA
03:00 20.5 19.7 95   18 13 14.5 98.48 28   LegendNANA
04:00 20.8 19.9 95   17 15 14.5 98.48 28   LegendNANA
05:00 21.2 19.9 92   20 19 14.5 98.52 29   LegendNANA
06:00 21.4 20.2 93   21 13 14.5 98.60 29   LegendNANA
07:00 21.8 20.0 90   23 13 14.5 98.64 29   LegendNANA
08:00 22.0 20.0 88   24 15 14.5 98.72 30   LegendNANA
09:00 22.4 19.7 85   22 17 14.5 98.73 30   Rain
10:00 22.5 21.1 92   19 9 14.5 98.74 31   Rain
11:00 23.6 21.1 86   18 15 14.5 98.75 32   LegendNANA
12:00 24.8 21.1 80   20 11 14.5 98.72 33   LegendNANA
13:00 24.5 21.1 81   20 20 14.5 98.72 33   LegendNANA
14:00
15:00
16:00 25.2 21.8 82   19 22 14.5 98.59 34   Rain
17:00 24.9 21.9 83   20 30 14.5 98.55 34   Rain
18:00 24.9 21.3 80   21 13 14.5 98.61 34   Rain
19:00 25.3 21.3 79   19 19 14.5 98.62 34   LegendNANA
20:00 25.1 21.2 79   18 17 14.5 98.59 34   LegendNANA
21:00 25.3 20.8 76   18 24 14.5 98.49 34   LegendNANA
22:00 25.5 20.3 73   19 22 14.5 98.46 33   LegendNANA
23:00 25.6 20.0 71   20 26 14.5 98.52 33   LegendNANA

Notes on Data Quality.

Legend

  • E = Estimated
  • M = Missing
  • NA = Not Available*
  • [empty] = Indicates an unobserved value
Date modified: